Location: Arbon
(43.0005°N, 0.7472°E)
Time: 06:28:07
(UTC+00:00)

Vanguard 1 - Pass Details

Date: 28 November 2020
Orbit: 648 x 3834 km, 34.3° (Epoch: 21 January)

Event Time Altitude Azimuth Distance (km) Brightness Sun altitude
Rises 03:38:03 0° 203° (SSW) 3,166 - -37.4°
Reaches altitude 10° 03:40:57 10° 182° (S) 2,472 - -36.8°
Exits shadow 03:43:09 16° 158° (SSE) 2,269 12.0 -36.4°
Maximum altitude 03:44:41 18° 141° (SE) 2,340 12.3 -36.2°
Drops below altitude 10° 03:49:36 10° 102° (ESE) 3,420 13.6 -35.3°
Sets 03:54:42 0° 86° (E) 5,028 14.8 -34.3°
